• In Uzbekistan
  • List of Countries
  • For 7 days
  • Water Temperature
  • Satellite Maps
  • Weather Map
  • Weather Widgets
  • user-avatar
    Login

    Hourly Weather Apolda

    Today, 24 January, Wednesday

    Time Temperature Precipitation Wind Pressure Humidity
    00:00 +3°C° 0 mm 6 mps 747 mmHg 88%
    01:00 +3°C° 0 mm 5 mps 747 mmHg 89%
    02:00 +3°C° 0 mm 6 mps 747 mmHg 90%
    03:00 +3°C° 0 mm 6 mps 747 mmHg 90%
    04:00 +3°C° 0 mm 6 mps 747 mmHg 90%
    05:00 +4°C° 0 mm 6 mps 747 mmHg 91%
    06:00 +5°C° 0 mm 5 mps 747 mmHg 91%
    07:00 +5°C° 0 mm 5 mps 747 mmHg 91%
    08:00 +6°C° 0 mm 5 mps 747 mmHg 91%
    09:00 +6°C° 0 mm 5 mps 747 mmHg 90%
    10:00 +5°C° 0 mm 6 mps 747 mmHg 89%
    11:00 +7°C° 0 mm 6 mps 747 mmHg 87%
    12:00 +8°C° 0 mm 6 mps 746 mmHg 85%
    13:00 +9°C° 0 mm 6 mps 746 mmHg 82%
    14:00 +8°C° 0 mm 6 mps 746 mmHg 84%
    15:00 +8°C° 0 mm 6 mps 745 mmHg 85%
    16:00 +8°C° 0 mm 6 mps 745 mmHg 87%
    17:00 +8°C° 0 mm 6 mps 744 mmHg 87%
    18:00 +8°C° 0 mm 6 mps 744 mmHg 88%
    19:00 +8°C° 0 mm 6 mps 744 mmHg 89%
    20:00 +8°C° 0 mm 6 mps 743 mmHg 87%
    21:00 +7°C° 0 mm 6 mps 743 mmHg 85%
    22:00 +6°C° 0 mm 7 mps 743 mmHg 84%
    23:00 +6°C° 0 mm 7 mps 743 mmHg 82%

    Tomorrow, 25 January, Thursday

    Time Temperature Precipitation Wind Pressure Humidity
    00:00 +7°C° 0 mm 6 mps 743 mmHg 81%
    01:00 +7°C° 0 mm 6 mps 743 mmHg 80%
    02:00 +7°C° 0 mm 6 mps 743 mmHg 80%
    03:00 +5°C° 0 mm 6 mps 742 mmHg 80%
    04:00 +5°C° 0 mm 6 mps 742 mmHg 81%
    05:00 +5°C° 0 mm 6 mps 742 mmHg 81%
    06:00 +5°C° 0 mm 6 mps 742 mmHg 81%
    07:00 +5°C° 0 mm 6 mps 742 mmHg 82%
    08:00 +5°C° 0.2 mm 6 mps 742 mmHg 82%
    09:00 +6°C° 0.2 mm 5 mps 742 mmHg 83%
    10:00 +6°C° 0.2 mm 5 mps 742 mmHg 84%
    11:00 +7°C° 0.3 mm 5 mps 742 mmHg 83%
    12:00 +7°C° 0.3 mm 5 mps 742 mmHg 83%
    13:00 +8°C° 0.3 mm 5 mps 741 mmHg 82%
    14:00 +7°C° 0 mm 4 mps 741 mmHg 82%
    15:00 +7°C° 0 mm 4 mps 741 mmHg 83%
    16:00 +7°C° 0 mm 4 mps 741 mmHg 83%
    17:00 +7°C° 0 mm 4 mps 741 mmHg 83%
    18:00 +6°C° 0 mm 4 mps 741 mmHg 83%
    19:00 +6°C° 0 mm 4 mps 741 mmHg 84%
    20:00 +6°C° 0 mm 4 mps 741 mmHg 84%
    21:00 +7°C° 0 mm 3 mps 741 mmHg 85%
    22:00 +5°C° 0 mm 3 mps 741 mmHg 85%
    23:00 +5°C° 0.1 mm 3 mps 741 mmHg 86%

    Day after tomorrow, 26 January, Friday

    Time Temperature Precipitation Wind Pressure Humidity
    00:00 +6°C° 0.1 mm 2 mps 740 mmHg 86%
    01:00 +6°C° 0.1 mm 2 mps 740 mmHg 87%
    02:00 +6°C° 0.4 mm 2 mps 740 mmHg 88%
    03:00 +6°C° 0.4 mm 2 mps 741 mmHg 89%
    04:00 +4°C° 0.4 mm 3 mps 741 mmHg 90%
    05:00 +5°C° 0.4 mm 2 mps 741 mmHg 92%
    06:00 +5°C° 0.4 mm 2 mps 741 mmHg 93%
    07:00 +6°C° 0.4 mm 1 mps 742 mmHg 95%
    08:00 +6°C° 0.3 mm 1 mps 742 mmHg 94%
    09:00 +6°C° 0.3 mm 1 mps 742 mmHg 93%
    10:00 +6°C° 0.3 mm 1 mps 743 mmHg 92%
    11:00 +6°C° 0.4 mm 1 mps 743 mmHg 91%
    12:00 +6°C° 0.4 mm 2 mps 743 mmHg 90%
    13:00 +6°C° 0.4 mm 2 mps 744 mmHg 89%
    14:00 +7°C° 0.5 mm 1 mps 744 mmHg 90%
    15:00 +7°C° 0.5 mm 1 mps 744 mmHg 91%
    16:00 +6°C° 0.5 mm 1 mps 745 mmHg 92%
    17:00 +6°C° 0.5 mm 1 mps 745 mmHg 93%
    18:00 +6°C° 0.5 mm 1 mps 745 mmHg 94%
    19:00 +6°C° 0.5 mm 1 mps 746 mmHg 95%
    20:00 +6°C° 0.2 mm 1 mps 746 mmHg 95%
    21:00 +6°C° 0.2 mm 1 mps 747 mmHg 95%
    22:00 +5°C° 0.2 mm 1 mps 747 mmHg 95%
    23:00 +5°C° 0.2 mm 1 mps 748 mmHg 95%

    27 January, Saturday

    Time Temperature Precipitation Wind Pressure Humidity
    00:00 +5°C° 0.2 mm 1 mps 748 mmHg 95%
    01:00 +5°C° 0.2 mm 1 mps 748 mmHg 94%
    02:00 +5°C° 0.1 mm 1 mps 749 mmHg 94%
    03:00 +5°C° 0.1 mm 1 mps 749 mmHg 94%
    04:00 +4°C° 0.1 mm 1 mps 749 mmHg 94%
    05:00 +4°C° 0 mm 1 mps 750 mmHg 94%
    06:00 +4°C° 0 mm 1 mps 750 mmHg 94%
    07:00 +4°C° 0 mm 1 mps 751 mmHg 93%
    08:00 +4°C° 0 mm 1 mps 751 mmHg 91%
    09:00 +5°C° 0 mm 1 mps 752 mmHg 89%
    10:00 +5°C° 0 mm 1 mps 753 mmHg 87%
    11:00 +6°C° 0 mm 1 mps 753 mmHg 83%
    12:00 +7°C° 0 mm 1 mps 753 mmHg 79%
    13:00 +8°C° 0 mm 1 mps 754 mmHg 74%
    14:00 +7°C° 0 mm 1 mps 754 mmHg 76%
    15:00 +7°C° 0 mm 1 mps 754 mmHg 77%
    16:00 +6°C° 0 mm 0 mps 754 mmHg 78%
    17:00 +6°C° 0 mm 1 mps 755 mmHg 81%
    18:00 +5°C° 0 mm 1 mps 755 mmHg 84%
    19:00 +4°C° 0 mm 1 mps 755 mmHg 87%
    20:00 +4°C° 0 mm 1 mps 756 mmHg 88%
    21:00 +3°C° 0 mm 2 mps 756 mmHg 89%
    22:00 +2°C° 0 mm 2 mps 756 mmHg 89%
    23:00 +2°C° 0 mm 2 mps 756 mmHg 89%

    28 January, Sunday

    Time Temperature Precipitation Wind Pressure Humidity
    00:00 +1°C° 0 mm 3 mps 756 mmHg 89%
    01:00 +1°C° 0 mm 3 mps 756 mmHg 89%
    02:00 +1°C° 0 mm 3 mps 756 mmHg 89%
    03:00 +1°C° 0 mm 3 mps 756 mmHg 88%
    04:00 0°C° 0 mm 4 mps 756 mmHg 87%
    05:00 0°C° 0 mm 4 mps 756 mmHg 85%
    06:00 0°C° 0 mm 4 mps 755 mmHg 84%
    07:00 0°C° 0 mm 5 mps 755 mmHg 82%
    08:00 +1°C° 0 mm 5 mps 756 mmHg 79%
    09:00 +2°C° 0 mm 6 mps 756 mmHg 75%
    10:00 +3°C° 0 mm 6 mps 756 mmHg 71%
    11:00 +3°C° 0 mm 6 mps 756 mmHg 71%
    12:00 +4°C° 0 mm 6 mps 756 mmHg 71%
    13:00 +4°C° 0 mm 6 mps 755 mmHg 71%
    14:00 +4°C° 0 mm 6 mps 755 mmHg 74%
    15:00 +5°C° 0 mm 5 mps 755 mmHg 78%
    16:00 +5°C° 0 mm 5 mps 755 mmHg 81%
    17:00 +5°C° 0 mm 5 mps 755 mmHg 84%
    18:00 +4°C° 0 mm 4 mps 755 mmHg 86%
    19:00 +4°C° 0 mm 4 mps 756 mmHg 89%
    20:00 +4°C° 0 mm 4 mps 756 mmHg 89%
    21:00 +4°C° 0 mm 4 mps 756 mmHg 90%
    22:00 +4°C° 0 mm 4 mps 756 mmHg 90%
    23:00 +5°C° 0.1 mm 5 mps 756 mmHg 90%

    29 January, Monday

    Time Temperature Precipitation Wind Pressure Humidity
    00:00 +5°C° 0.1 mm 5 mps 756 mmHg 91%
    01:00 +5°C° 0.1 mm 5 mps 756 mmHg 91%
    02:00 +5°C° 0 mm 5 mps 755 mmHg 91%
    03:00 +5°C° 0 mm 5 mps 755 mmHg 92%
    04:00 +6°C° 0 mm 5 mps 755 mmHg 92%
    05:00 +6°C° 0 mm 5 mps 755 mmHg 92%
    06:00 +6°C° 0 mm 5 mps 755 mmHg 91%
    07:00 +6°C° 0 mm 5 mps 755 mmHg 91%
    08:00 +6°C° 0 mm 5 mps 755 mmHg 89%
    09:00 +6°C° 0 mm 5 mps 755 mmHg 88%
    10:00 +7°C° 0 mm 6 mps 755 mmHg 86%
    11:00 +7°C° 0 mm 6 mps 755 mmHg 85%
    12:00 +7°C° 0 mm 6 mps 755 mmHg 83%
    13:00 +8°C° 0 mm 6 mps 754 mmHg 82%
    14:00 +8°C° 0 mm 6 mps 754 mmHg 82%
    15:00 +8°C° 0 mm 6 mps 754 mmHg 82%
    16:00 +8°C° 0 mm 5 mps 754 mmHg 83%
    17:00 +8°C° 0 mm 5 mps 753 mmHg 84%
    18:00 +7°C° 0 mm 5 mps 753 mmHg 85%
    19:00 +7°C° 0 mm 5 mps 753 mmHg 87%
    20:00 +7°C° 0 mm 5 mps 753 mmHg 87%
    21:00 +7°C° 0 mm 5 mps 753 mmHg 87%
    22:00 +7°C° 0 mm 4 mps 753 mmHg 87%
    23:00 +7°C° 0 mm 4 mps 752 mmHg 87%
    Show more